Location: *
(25.1044°N, 32.7916°E)
Time: 09:23:51
(UTC+00:00)

Daily predictions for brighter satellites

Satellite Brightness Start Highest point End
(mag) Time Altitude Azimuth Time Altitude Azimuth Time Altitude Azimuth
Helios 1A Rocket 4.2 17:01:33 10° SE 17:04:45 23° ENE 17:07:57 10° NNE
Delta 7925 Rocket 4.3 16:58:45 10° WSW 17:04:52 59° SSE 17:12:50 10° E
GPS 2-17 Rocket1 4.4 17:03:12 10° SSW 17:06:28 20° SSE 17:09:41 10° ESE
Cosmos 2151 Rocket 3.8 17:03:15 10° N 17:07:31 50° E 17:11:47 10° SSE
SAR-Lupe-1 4.2 17:04:29 10° NNE 17:07:58 53° E 17:11:27 10° S
COSMOS 2428 4.3 17:05:42 10° SE 17:08:27 14° E 17:11:11 10° ENE
Cosmos 2237 4.2 17:06:18 10° SSW 17:11:59 85° ESE 17:17:41 10° NNE
Cosmos 1190 Rocket 4.0 17:07:27 10° NNW 17:12:46 77° ENE 17:18:04 10° SSE
GPS 2-18 Rocket1 3.8 17:09:47 10° WSW 17:13:18 36° S 17:16:53 10° ESE
NATO 3D Rocket 4.0 17:08:10 10° W 17:13:32 44° SSW 17:18:03 10° ESE
Cosmos 1821 Rocket 4.4 17:09:57 10° NNW 17:15:59 65° W 17:21:59 10° S
SL-08 RB Rocket 4.2 17:13:45 10° S 17:18:09 62° W 17:22:37 10° NNW
Cosmos 1400 Rocket 3.1 17:16:43 10° NNW 17:20:33 69° W 17:24:24 10° S
Cosmos 2263 Rocket 2.2 17:16:41 10° NNW 17:22:22 75° ENE 17:28:01 10° SSE
X-37B 0.6 17:20:06 10° SW 17:23:16 83° NW 17:26:25 10° NE
Cosmos 1766 3.8 17:20:42 10° NNW 17:24:30 59° W 17:28:20 10° S
Yuri Rocket 3.8 17:19:58 10° W 17:24:46 72° N 17:31:17 10° ENE
Cosmos 1689 Rocket 3.6 17:22:12 10° N 17:24:50 37° WNW 17:27:28 10° SSW
YAOGAN 1 4.3 17:22:02 10° SSW 17:25:54 33° W 17:29:48 10° NW
MetOp-A 4.2 17:22:43 10° SSE 17:28:01 68° ENE 17:33:20 10° N
CSL-04 Debris 4.3 17:23:45 10° S 17:29:07 80° WSW 17:34:32 10° NNW
Meteor 2-20 4.4 17:24:44 10° S 17:30:47 67° E 17:36:48 10° NNE
ERS-2 2.0 17:28:10 10° NNE 17:31:47 67° E 17:35:24 10° S
USA 186 1.5 17:29:54 11° SSE 17:32:32 63° E 17:35:32 10° N
Ariane Rocket 4.2 17:29:10 13° ESE 17:32:36 25° ENE 17:36:42 10° NNE
Cosmos 1470 3.1 17:30:13 10° N 17:34:00 45° E 17:37:15 13° SSE
Meteor 1-21 4.4 17:28:30 10° S 17:34:09 78° W 17:39:47 10° N
Okean 2 4.3 17:32:20 10° SSW 17:36:18 51° W 17:40:16 10° N
ATLAS 3B R/B 2.6 17:35:45 10° SSW 17:42:15 88° ESE 17:48:52 10° NNE
Cosmos 2333 4.2 17:36:45 10° S 17:42:26 64° ESE 17:48:06 10° NNE
Cosmos 1934 Rocket 4.2 17:36:34 10° N 17:42:44 76° W 17:48:58 10° S
Cosmos 1954 Rocket 4.0 17:37:38 10° NNW 17:42:57 90° WSW 17:48:07 10° SSE
Meteor 2-10 4.1 17:39:57 10° N 17:45:08 86° W 17:50:29 10° S
Cosmos 2219 Rocket 2.5 17:40:37 10° S 17:45:57 43° ESE 17:51:17 10° NE
Uosat 12 SS-18 rocket 4.1 17:43:05 10° S 17:47:09 50° ESE 17:51:24 10° NE
Cosmos 676 Rocket 4.1 17:41:53 10° NNW 17:47:14 84° WSW 17:52:17 11° SSE
Okean 1 Rocket 3.0 17:42:54 10° N 17:47:17 69° E 17:51:02 14° SSE
Cosmos 1707 3.4 17:43:31 10° SSW 17:47:18 57° W 17:51:08 10° N
USA 234 3.3 17:42:27 15° SE 17:48:05 90° SSW 17:54:40 10° NW
Cosmos 1025 Rocket 4.2 17:47:23 21° ESE 17:48:40 24° E 17:52:11 10° NE
SJ-6B 2.8 17:50:46 15° SSE 17:54:09 88° E 17:58:11 10° N
Cosmos 1110 Rocket 4.3 17:51:04 10° SSW 17:56:11 70° WNW 18:01:22 10° N
Cosmos 2333 Rocket 2.1 17:53:36 10° S 17:59:19 74° ESE 18:05:02 10° NNE
Resurs 1-3 3.8 17:59:47 27° SE 18:01:54 52° ENE 18:06:10 10° N
Cosmos 1726 2.5 17:59:38 10° NNW 18:03:14 62° W 18:05:52 17° S
IRS-1A Rocket 4.4 18:00:50 21° SSE 18:04:45 63° ENE 18:10:28 10° N
Cosmos 1674 2.6 18:08:47 19° S 18:11:22 79° W 18:15:04 10° N
Cosmos 2237 Rocket 4.0 18:13:52 14° ENE 18:13:52 14° ENE 18:15:14 10° ENE
Cosmos 2360 Rocket 4.0 18:07:14 10° SW 18:12:13 32° WNW 18:17:13 10° N
Cosmos 1727 Rocket 4.5 18:11:19 10° SSW 18:17:32 62° W 18:23:44 10° N
Meteor 2-5 Rocket 4.5 18:18:09 29° E 18:18:26 29° E 18:23:12 10° NNE
EPKM 2.1 18:16:25 10° WSW 18:18:44 55° SSE 18:18:44 55° SSE
KORONAS-FOTON 4.3 18:16:37 16° SSW 18:19:29 57° W 18:23:12 10° N
ASTRO E2 4.1 18:16:49 10° WNW 18:20:26 33° N 18:22:22 21° NE
Landsat 7 4.4 18:20:10 36° E 18:20:56 39° ENE 18:25:20 10° N
Cosmos 1315 Rocket 4.1 18:17:59 10° NNW 18:21:48 39° W 18:24:33 17° SSW
Cosmos 1975 Rocket 3.9 18:21:13 10° SSW 18:25:23 48° W 18:29:37 10° N
OBJECT-B 3.2 18:23:43 12° SW 18:25:48 20° W 18:28:12 10° NW
Cosmos 1340 2.8 18:32:51 60° NE 18:32:51 60° NE 18:36:07 10° NNE
NOSS 0 Rocket 4.1 18:33:39 43° SE 18:34:45 47° ESE 18:40:40 10° NNE
Lacrosse 5 3.1 18:30:40 10° WNW 18:35:10 33° WSW 18:37:06 25° SSW
SL-14 R/B 3.5 18:38:38 58° NE 18:38:38 58° NE 18:42:04 10° NNE
USA 81 4.4 18:33:05 10° N 18:38:16 61° W 18:41:05 27° SSW
Meteor 1-24 Rocket 4.4 18:39:13 34° ENE 18:39:13 34° ENE 18:43:26 10° NNE
DELTA 2 R/B (1) 3.4 18:37:49 10° SW 18:43:19 67° SE 18:44:32 51° E
Cosmos 1459 Rocket 3.9 18:37:23 10° N 18:43:25 67° E 18:44:50 51° SE
MetOp-B 4.2 18:43:02 53° ESE 18:43:38 56° ENE 18:48:51 10° N
Cosmos 1850 Rocket 4.3 18:40:24 10° NNW 18:45:34 63° WSW 18:47:04 43° SSW
Cosmos 1626 2.9 18:45:20 44° WSW 18:45:47 46° W 18:49:19 10° N
IGS 5A 3.4 18:46:45 81° W 18:46:45 81° W 18:50:54 10° NNW
ATLAS CENTAUR R/B 2.7 18:45:10 10° N 18:48:47 33° NE 18:48:47 33° NE
Cosmos 1844 Rocket 2.6 18:44:34 10° NNW 18:50:15 83° ENE 18:51:09 64° SSE
OAO 1 4.3 18:45:13 10° WSW 18:50:41 80° SSE 18:51:31 64° E
COSMOS 2428 3.4 18:46:35 10° SW 18:52:09 53° WNW 18:57:45 10° N
Meteor 1-16 Rocket 4.1 18:47:48 10° N 18:53:07 76° W 18:54:11 56° SSW
Cosmos 1802 Rocket 4.0 18:48:16 10° N 18:54:35 67° E 18:55:35 58° SE
Resurs 01 Rocket 1.8 18:54:51 60° WSW 18:55:05 61° W 18:59:26 10° NNW
Cosmos 1461 3.4 18:51:46 10° NNW 18:55:09 52° WNW 18:55:09 52° WNW
Cosmos 2278 Rocket 4.4 18:55:04 10° NE 18:56:16 11° ENE 18:56:16 11° ENE
Cosmos 1953 3.5 19:02:43 10° NNW 19:06:15 39° W 19:06:15 39° W
SPOT 1/Viking Rocket 3.5 19:06:59 78° NNE 19:06:59 78° NNE 19:11:51 10° N
H-2A R/B 2.5 18:53:31 10° WSW 19:06:43 57° SSW 19:06:43 57° SSW
Cosmos 1544 Rocket 4.4 19:12:50 10° NNW 19:16:18 48° NW 19:16:18 48° NW
Cosmos 1864 Rocket 4.3 19:11:21 10° N 19:17:20 76° ENE 19:17:20 76° ENE
Cosmos 2123 Rocket 4.5 19:15:18 37° SW 19:17:36 57° W 19:23:49 10° N
ATLAS 2A CENTAUR R/B 2.6 18:59:42 10° WSW 19:18:19 90° S 19:19:23 65° E
Yuri Rocket 4.2 19:16:38 10° WNW 19:22:33 71° N 19:24:11 54° ENE
Cosmos 1980 3.8 19:23:36 73° N 19:23:36 73° N 19:28:47 10° NNE
Cosmos 2233 Rocket 4.4 19:24:28 10° N 19:29:26 50° NE 19:29:26 50° NE
ARIANE 5 R/B 4.1 19:32:54 34° N 19:32:54 34° N 19:35:26 10° N
Terra 3.6 19:33:16 24° NNE 19:33:16 24° NNE 19:35:28 10° N
Cosmos 2061 Rocket 4.3 19:35:18 10° NNW 19:41:34 61° W 19:41:38 61° W
SPOT 5 4.3 19:55:00 36° NNW 19:55:00 36° NNW 19:57:54 10° NNW
Cosmos 2237 Rocket 3.2 19:55:35 41° WNW 19:55:35 41° WNW 20:00:38 10° N
SL-16 R/B 4.2 19:59:15 19° NE 19:59:15 19° NE 20:00:52 10° NNE
ERS-1 Rocket 4.5 20:03:46 33° NW 20:03:46 33° NW 20:06:37 10° NNW
USA 215 4.2 20:05:34 10° NE 20:09:20 38° NE 20:09:20 38° NE
Cosmos 2278 Rocket 3.9 20:35:27 10° NNW 20:38:06 29° NNW 20:38:06 29° NNW
Cosmos 2369 Rocket 4.4 21:53:20 10° N 21:55:19 21° N 21:55:19 21° N
SL-16 R/B 3.1 23:34:48 54° NE 23:34:48 54° NE 23:39:56 10° N
Resurs 1-4 Rocket 3.7 23:41:58 10° N 23:44:38 28° NNW 23:44:38 28° NNW
CZ-4C R/B 3.6 23:50:46 27° N 23:50:46 27° N 23:53:28 10° NNE
SeaSat 1 4.4 23:46:08 10° NE 23:48:54 21° E 23:48:54 21° E
ADEOS II 3.1 23:45:34 10° NNE 23:49:01 42° NNE 23:49:01 42° NNE
Cosmos 1833 Rocket 3.5 23:54:24 48° ENE 23:54:24 48° ENE 23:58:44 10° NNE
